Lanai City, HI

6:25 AM HST on August 25, 2016 (GMT -1000)
Lanai City

Weather History for PHNY - November, 2011

Change the Weather History Date:

Monday, November 7, 2011

  Actual Average Record
Temperature  
Mean Temperature 71 °F -  
Max Temperature 79 °F 80 °F 84 °F (2002)
Min Temperature 63 °F 63 °F 59 °F (1949)
Cooling Degree Days 6    
Growing Degree Days 21 (Base 50)    
Moisture  
Dew Point 64 °F    
Average Humidity 76    
Maximum Humidity 93    
Minimum Humidity 61    
Precipitation  
Precipitation 0.00 in - - ()
Sea Level Pressure  
Sea Level Pressure 30.06 in    
Wind  
Wind Speed 6 mph (NE)    
Max Wind Speed 21 mph    
Max Gust Speed -    
Visibility 10 miles    
Events      
Averages and records for this station are not official NWS values.
T = Trace of Precipitation, MM = Missing Value Source: NWS Daily Summary

Daily Weather History Graph

Daily Weather History Graph

Search for Another Location

Airport or City:

Trip Planner

Search our weather history database for the weather conditions in past years. The results will help you decide how hot, cold, wet, or windy it might be!

Date:

Astronomy

Nov. 07, 2011 Rise Set
Actual Time 6:33 AM HST 5:49 PM HST
Civil Twilight 6:10 AM HST 6:12 PM HST
Nautical Twilight 5:43 AM HST 6:38 PM HST
Astronomical Twilight 5:17 AM HST 7:05 PM HST
Moon 3:54 PM HST (11/7) 4:01 AM HST (11/7)
Length of Visible Light 12h 02m
Length of Day
11h 16m
Waxing Gibbous, 92% of the Moon is Illuminated
Nov 7
Waxing Gibbous
Nov 10
Full
Nov 18
Last Quarter
Nov 24
New
Dec 1
First Quarter

Hourly Weather History & Observations

Time (HST) Temp. Dew Point Humidity Pressure Visibility Wind Dir Wind Speed Gust Speed Precip Events Conditions
12:56 AM 66.9 °F 63.0 °F 87% 30.04 in 10.0 mi Calm Calm - N/A   Clear
1:56 AM 64.9 °F 61.9 °F 90% 30.04 in 10.0 mi Calm Calm - N/A   Clear
2:56 AM 63.9 °F 61.9 °F 93% 30.03 in 10.0 mi Calm Calm - N/A   Clear
3:56 AM 65.8 °F 63.9 °F 93% 30.02 in 10.0 mi Calm Calm - N/A   Clear
4:56 AM 68.0 °F 64.9 °F 90% 30.00 in 10.0 mi North 9.2 mph - N/A   Clear
5:56 AM 68.9 °F 64.9 °F 87% 30.02 in 10.0 mi NE 13.8 mph - N/A   Clear
6:56 AM 68.0 °F 63.9 °F 87% 30.06 in 10.0 mi Calm Calm - N/A   Clear
7:56 AM 71.6 °F 64.4 °F 78% 30.13 in 10.0 mi Calm Calm - N/A   Mostly Cloudy
8:56 AM 73.9 °F 65.8 °F 76% 30.09 in 10.0 mi Calm Calm - N/A   Clear
9:23 AM 73.4 °F 64.4 °F 73% 30.15 in 10.0 mi North 8.1 mph - N/A   Mostly Cloudy
9:40 AM 75.2 °F 64.4 °F 69% 30.15 in 10.0 mi Variable 4.6 mph - N/A   Scattered Clouds
9:56 AM 73.9 °F 64.9 °F 73% 30.09 in 10.0 mi Calm Calm - N/A   Mostly Cloudy
10:47 AM 73.4 °F 64.4 °F 73% 30.14 in 10.0 mi Calm Calm - N/A   Overcast
10:56 AM 75.2 °F 66.2 °F 73% 30.14 in 10.0 mi Calm Calm - N/A   Mostly Cloudy
11:56 AM 79.0 °F 64.9 °F 62% 30.04 in 10.0 mi North 9.2 mph - N/A   Partly Cloudy
12:36 PM 78.8 °F 64.4 °F 61% 30.08 in 10.0 mi NE 16.1 mph - N/A   Mostly Cloudy
12:56 PM 77.0 °F 64.9 °F 66% 30.02 in 10.0 mi NE 20.7 mph - N/A   Overcast
1:05 PM 75.2 °F 64.4 °F 69% 30.08 in 10.0 mi NE 17.3 mph - N/A   Overcast
1:21 PM 78.8 °F 66.2 °F 65% 30.07 in 10.0 mi NE 19.6 mph - N/A   Mostly Cloudy
1:56 PM 77.0 °F 63.9 °F 64% 30.01 in 10.0 mi NE 13.8 mph - N/A   Clear
2:56 PM 77.9 °F 63.9 °F 62% 30.00 in 10.0 mi NE 17.3 mph - N/A   Clear
3:56 PM 77.9 °F 63.9 °F 62% 29.99 in 10.0 mi NE 18.4 mph - N/A   Clear
4:56 PM 72.9 °F 63.0 °F 71% 30.02 in 10.0 mi NE 18.4 mph - N/A   Clear
5:56 PM 70.0 °F 63.9 °F 81% 30.04 in 10.0 mi NE 16.1 mph - N/A   Clear
6:56 PM 70.0 °F 63.9 °F 81% 30.06 in 10.0 mi NE 18.4 mph - N/A   Clear
7:56 PM 68.9 °F 63.0 °F 81% 30.09 in 10.0 mi ENE 10.4 mph - N/A   Clear
8:56 PM 68.9 °F 63.0 °F 81% 30.07 in 10.0 mi NE 17.3 mph - N/A   Clear
9:56 PM 70.0 °F 61.9 °F 75% 30.06 in 10.0 mi ENE 11.5 mph - N/A   Clear
10:56 PM 68.9 °F 61.0 °F 76% 30.06 in 10.0 mi NNE 12.7 mph - N/A   Clear
11:56 PM 68.9 °F 61.0 °F 76% 30.05 in 10.0 mi NE 12.7 mph - N/A   Clear